Regional Weather Roundup
Issued by NWS Kansas City/Pleasant Hill, MO

Home | Current Version | Previous Version | Graphics & Text | Print | Product List | Glossary Off
Versions: 1 2 3 4 5 6 7 8 9 10 11 12 13 14 15 16 17 18 19 20 21 22 23 24 25 26 27 28 29 30 31 32 33 34 35 36 37 38 39 40 41 42 43 44 45 46 47 48 49 50

370
ASUS43 KEAX 241410
RWREAX

WEATHER ROUNDUP FOR EASTERN KANSAS AND NORTHWEST MISSOURI
NATIONAL WEATHER SERVICE KANSAS CITY/PLEASANT HILL MO
800 AM CST FRI FEB 24 2017

KSZ040-057-103>105-MOZ028-029-037-043-241500-
...KANSAS CITY METROPOLITAN AREA...

CITY           SKY/WX    TMP DP  RH WIND       PRES   REMARKS
K.C. INTL      CLOUDY    37  34  89 W10       29.63R WCI  30
K.C. DOWNTOWN  CLOUDY    39  34  82 W9        29.64R WCI  33
LEES SUMMIT    CLOUDY    38  35  89 W13G21    29.63R WCI  30
OLATHE - IXD   CLOUDY    37  34  89 W14       29.66R WCI  28
OLATHE - OJC   CLOUDY    36  35  96 W10       29.65R WCI  28
LAWRENCE       CLOUDY    37  36  96 W14       29.67R FOG     WCI  28

$$

MOZ001>008-011>017-020>025-030>033-038>040-044>046-053-054-241500-
...NORTHERN AND CENTRAL MISSOURI...

CITY           SKY/WX    TMP DP  RH WIND       PRES   REMARKS
ST. JOSEPH     CLOUDY    37  36  96 NW13      29.64R WCI  29
MOSBY          CLOUDY    37  34  87 W13       29.62R WCI  29
WARRENSBURG    CLOUDY    39  34  81 W15G21    29.63R WCI  31
WHITEMAN AFB   CLOUDY    41  41 100 W15       29.59R WCI  34
CLINTON        CLOUDY    41  37  87 W14       29.64R WCI  33
SEDALIA        CLOUDY    43  38  82 W17G25    29.61R
WARSAW         NOT AVBL
CHILLICOTHE      N/A     42  40  92 NW6       29.58R
KIRKSVILLE     CLOUDY    39  39 100 NW9       29.53R FOG     WCI  33

$$

MOZ041-047>049-056>058-063>065-088>090-097-241500-
...EASTERN AND SOUTHERN MISSOURI...

CITY           SKY/WX    TMP DP  RH WIND       PRES   REMARKS
ST. LOUIS INTL CLOUDY    63  54  72 S10       29.48R
SPIRIT OF STL  CLOUDY    64  55  72 SW6G18    29.46R
COLUMBIA       CLOUDY    47  43  86 W22G30    29.55R
JEFFERSON CITY CLOUDY    48  44  86 W16G25    29.57R
ROLLA          LGT RAIN  51  48  89 W18       29.55R
OSAGE BEACH    CLOUDY    47  42  83 NW10G21   29.61R
SPRINGFIELD    CLOUDY    44  39  82 W12G25    29.64R
BRANSON        CLOUDY    46  43  87 NW13      29.64R
JOPLIN         CLOUDY    41  37  86 W13G24    29.70R WCI  34
WEST PLAINS    CLOUDY    60  53  77 SW10      29.58R

$$

IAZ060-094-KSZ022-034>040-054-083-096-NEZ052-066-093-241500-
...KANSAS...SOUTHEAST NEBRASKA AND IOWA...

CITY           SKY/WX    TMP DP  RH WIND       PRES   REMARKS
TOPEKA         CLOUDY    36  36 100 W9        29.69R FOG     WCI  29
MANHATTAN      CLOUDY    33  31  92 NW7       29.73R WCI  27
EMPORIA        CLOUDY    35  29  78 NW18G30   29.72R WCI  24
CHANUTE        CLOUDY    38  30  73 NW13      29.73R WCI  30
WICHITA        CLOUDY    35  25  66 NW17G26   29.80R WCI  25
OMAHA          FRZ RAIN  28  24  85 N23G30    29.72R FOG     WCI  14
LINCOLN        FRZ RAIN  27  24  89 N32G41    29.76R FOG     WCI  10
FALLS CITY     CLOUDY    33  31  92 N14G23    29.66R WCI  23
LAMONI         CLOUDY    35  33  92 N14       29.56R WCI  26
DES MOINES     DRIZZLE   35  32  88 N15       29.60R FOG     WCI  25

$$





USA.gov is the U.S. government's official web portal to all federal, state and local government web resources and services.